HULIANWAN GAOGUI-02 (H*) (60327 NORAD) Tracking and Keplerian Element Data

This shows tracking and keplerian element data for the satellite.

Feedback or suggestion? Click here.




ElementValue
Catalog60327
NameHULIANWAN GAOGUI-02 (H*)
Epoch Orbit136
Epoch Day286.79341486
Epoch Year2024
RAAN4.1738
Inclination0.0306
Eccentricity0.0002672
Argument of Perigee236.5064
Mean Anonmoly219.9295
Mean Motion1.00269949
Decay Rate-1.74E-06
L11 60327U 24135A 24286.79341486 -.00000174 00000+0 00000+0 0 9998
L22 60327 0.0306 4.1738 0002672 236.5064 219.9295 1.00269949 1362



Live tracking and technical data element details for HULIANWAN GAOGUI-02 (H*) (NORAD 60327). HULIANWAN GAOGUI-02 (H*) can be tracked NOW for your location showing map with azimuth and elevation plus other details from your city location.







IsCatalogInMostPopularTable: catalog: 60327, numindb: 4
Update: records affected: 1



GetName: 60327 HULIANWAN GAOGUI-02 (H*)

Hit Count: updated at: Fri, 06 Dec 2024 11:44:51 GMT